User: anonymous   Login
Location: Eferding
(48.3167°N, 14.0167°E)
Time: 21:10:44
(UTC+00:00)
Language:

NOSS 3-1 (A) - Orbit

View from above orbital plane
View from above orbital plane
View from above satellite
View from above satellite

Ground track
Ground track

The orbit data is extracted from the following two-line orbital elements,

1 26905U 01040A   20021.20448751 0.00000000  00000-0  00000-0 0    06
2 26905  63.4017 130.9808 0454003   0.8098 359.1902 13.40777644    07
Epoch (UTC): 21 January 2020 04:54:27
Eccentricity: 0.0454003
inclination: 63.4017°
perigee height: 766 km
apogee height: 1446 km
right ascension of ascending node: 130.9808°
argument of perigee: 0.8098°
revolutions per day: 13.40777644
mean anomaly at epoch: 359.1902°
orbit number at epoch: 0

The dashed part of the orbit path shows where the satellite is in the earth's shadow,  

DLR